Skip Page Navigation
NASA JPL Caltech
NASA Logo - Jet Propulsion Laboratory + View the NASA Portal
+ Center for Near-Earth Object Studies
JPL Home Earth Solar System Stars & Galaxies Technology
JPL Solar System Dynamics
BODIES ORBITS EPHEMERIDES TOOLS PHYSICAL DATA DISCOVERY FAQ SITE MAP
JPL Small-Body Database Browser
Search: [ help ]  
214067 (2004 FK111)
Classification: Main-belt Asteroid          SPK-ID: 2214067
Ephemeris | Orbit Diagram | Orbital Elements | Mission Design | Physical Parameters | Discovery Circumstances | Close-Approach Data ]

[ show orbit diagram ]
Orbital Elements at Epoch 2459200.5 (2020-Dec-17.0) TDB
Reference: JPL 17 (heliocentric ecliptic J2000)
 Element Value Uncertainty (1-sigma)   Units 
e .01283390933362318 6.4578e-08  
a 2.804120358935309 2.0548e-08 au
q 2.768132532488166 1.843e-07 au
i 5.516929530153817 6.6185e-06 deg
node 213.2558959102495 5.389e-05 deg
peri 309.3669639705368 0.00020975 deg
M 221.5226693798236 0.00020612 deg
tp 2459860.235091799553
(2022-Oct-07.73509180)
0.00098442 TDB
period 1715.115622060049
4.70
1.8852e-05
5.161e-08
d
yr
n .2098983854905357 2.3071e-09 deg/d
Q 2.840108185382452 2.0811e-08 au
  Orbit Determination Parameters
   # obs. used (total)      354  
   data-arc span      10302 days (28.21 yr)  
   first obs. used      1992-10-22  
   last obs. used      2021-01-05  
   planetary ephem.      DE431  
   SB-pert. ephem.      SB431-N16  
   condition code      0  
   norm. resid. RMS      .57061  
   source      ORB  
   producer      Otto Matic  
   solution date      2021-Feb-24 12:44:15  

Additional Information
 Earth MOID = 1.77289 au 
 Jupiter MOID = 2.1286 au 
 T_jup = 3.317 
[ hide covariance matrix ]
Orbital Elements at Epoch 2457496.5 (2016-Apr-18.0) TDB
Reference: JPL 17 (heliocentric ecliptic J2000)
 Element Value Uncertainty (1-sigma)   Units 
e .01021408223942244 6.4313e-08  
q 2.777014196111872 1.8309e-07 au
tp 2458135.280267730201
(2018-Jan-16.78026773)
0.0012425 TDB
node 213.3384681734294 5.3778e-05 deg
peri 307.4560999024111 0.00026355 deg
i 5.520783273466602 6.6264e-06 deg
  Orbit Determination Parameters
   # obs. used (total)      354  
   data-arc span      10302 days (28.21 yr)  
   first obs. used      1992-10-22  
   last obs. used      2021-01-05  
   planetary ephem.      DE431  
   SB-pert. ephem.      SB431-N16  
   condition code      0  
   norm. resid. RMS      .57061  
   source      ORB  
   producer      Otto Matic  
   solution date      2021-Feb-24 12:44:15  

Additional Information
 Jupiter MOID = 2.1286 au 
 T_jup = 3.317 
Orbit Covariance (6×6)
  e q tp node peri i
e 4.136145806676639E-15 -1.1702242197684E-14 2.285014545696249E-11 2.327560960293918E-14 4.802956388873166E-12 -9.540804910788119E-16
q -1.1702242197684E-14 3.352131415942373E-14 -5.60709428990867E-11 -6.881619115207091E-14 -1.183456513112295E-11 3.144095978325283E-15
tp 2.285014545696249E-11 -5.60709428990867E-11 1.543865741397257E-6 2.967551363614117E-10 3.2060782608619E-7 -1.031913112642147E-11
node 2.327560960293918E-14 -6.881619115207091E-14 2.967551363614117E-10 2.892115524267571E-9 -2.815800423794824E-9 -1.770944668140234E-10
peri 4.802956388873166E-12 -1.183456513112295E-11 3.2060782608619E-7 -2.815800423794824E-9 6.945899166114042E-8 1.740623635202706E-10
i -9.540804910788119E-16 3.144095978325283E-15 -1.031913112642147E-11 -1.770944668140234E-10 1.740623635202706E-10 4.39091425870161E-11

Ephemeris | Orbit Diagram | Orbital Elements | Mission Design | Physical Parameters | Discovery Circumstances | Close-Approach Data ]

Physical Parameter Table
Parameter Symbol Value Units Sigma Reference Notes
absolute magnitude H 15.9   n/a MPO437026  

214067 (2004 FK111)          Discovered 2004-Mar-26 by LINEAR at Socorro
Reference: 20090509/Numbers.arcLast Updated: 2009-05-11

[ show close-approach data ]
Alternate Designations
 2004 FK111 = 2001 ST85 
Ephemeris | Orbit Diagram | Orbital Elements | Mission Design | Physical Parameters | Discovery Circumstances | Close-Approach Data ]
ABOUT SSD CREDITS/AWARDS PRIVACY/COPYRIGHT GLOSSARY LINKS
FirstGov 2021-Mar-03 22:59 UT
(server date/time)  
NASA Home Page
Site Manager:   Ryan S. Park
Webmaster  Alan B. Chamberlin